loading
|

TIROS 2 DEB *, 5922

Orbit data source: Space-Track

TIROS 2 DEB *, 5922 is space debris in LEO originally from a launch on Wed, 23 Nov 1960 UTC launched from the Air Force Eastern Test Range (AFETR). Debris objects in space refer to the collection of defunct objects orbiting the Earth. Examples of debris include non-operational satellites, rocket bodies, and fragments generated from explosions, collisions, or faulty payload assembly.

Loading next visibility...
Loading greatness...
TIROS 2 DEB * details
Identifier
5922, 1960-016E
Orbit
LEO
Last TLE update1 day ago
Origin
Flag of USGSFC (US)
ManufacturerUnknown
MissionSpacecraft
Bus & MotorUnknown bus, Unknown motor
MassUnknown
Launch date (UTC)
1960-11-23 (64 years ago)
Launch vehicleUnknown
Launch site
Air Force Eastern Test Range (AFETR)
Object type
Payload
Rocket body
Debris
Shape & HBRUnknown
Radar Cross SectionSmall (<0.1 m²)

Expand to show TLE details & history

TLE from 1 day ago
0 TIROS 2 DEB *
1 05922U 60016E   24282.02380925  .00000134  00000-0  29834-3 0  9995
2 05922  47.0306 152.4826 0040285  78.9298  59.3766 13.69948371666825
Epoch: 2024-10-08T00:34Z
Definitive object data (Epoch: 2024-10-08T00:34:17.119Z)
Latitude28.96819°
Longitude-84.09516°
Altitude985.605 km
Speed7.37 km/s
True Right ascension20h 06m 28s
True Declination28° 49' 38"
Sunlit
Object was in daylight at TLE epoch
Predictive object data (real-time)
Latitude5.10602°
Longitude125.67114°
Altitude992.933 km
Speed7.36 km/s
Apparent Right ascension12h 38m 25s
Apparent Declination-24° 12' 41"
Sunlit
Object is in daylight
Predictive observer data (real-time)
Local Sidereal Time05:10:26
Azimuth96.435° ESE
Elevation-31.676°
Doppler factor1
Orbital elements
Apogee1,030.663 km
Perigee971.21 km
Semi-major axis7,379.073 km
Eccentricity0.0040285
Inclination47.0306°
RAAN152.4826°
Arg. of periapsis78.9298°
True anomaly59.77487°
Mean anomaly59.3766°
Eccentric anomaly59.57563°
Mean motion3.42405 °/min
BSTAR0.00029834
Period105.14 mins
No data available
No data available

TIROS 2 DEB * Visibility forecast

Observer location: 39.9160978°, -105.1181434

TIROS 2 DEB * is not visible in the next 10 days
Span
Click to sort rows by Start time (UTC) header in descending order
Start Az.
Max El. time (UTC)
Max El. Az.
Max El.
End time (UTC)
End Az.